This is the latest recevied weather packets stored in our database for station/object G1OCN-WX. If no packets are shown the sender has not sent any weather packets the latest 1 day(s).
| Time | Temp. | Humidity | Pressure | Rain* | Wind** | Luminosity | Snow |
|---|---|---|---|---|---|---|---|
| 1778046166 | 8.89° C | 85% | 1012.8 hPa | 0 mm | 5.81 m/s, 66° | - | - |
| 1778046105 | 8.89° C | 85% | 1012.8 hPa | 0 mm | 5.36 m/s, 68° | - | - |
| 1778046045 | 8.89° C | 85% | 1012.8 hPa | 0 mm | 5.81 m/s, 61° | - | - |
| 1778045985 | 8.89° C | 85% | 1012.8 hPa | 0 mm | 5.81 m/s, 63° | - | - |
| 1778045925 | 8.89° C | 85% | 1012.8 hPa | 0 mm | 5.81 m/s, 66° | - | - |
| 1778045865 | 8.89° C | 85% | 1012.8 hPa | 0 mm | 5.81 m/s, 67° | - | - |
| 1778045805 | 8.89° C | 85% | 1012.8 hPa | 0 mm | 5.81 m/s, 67° | - | - |
| 1778045745 | 8.89° C | 85% | 1012.8 hPa | 0 mm | 5.81 m/s, 63° | - | - |
| 1778045685 | 8.89° C | 85% | 1012.8 hPa | 0.25 mm | 5.81 m/s, 61° | - | - |
| 1778045625 | 8.89° C | 85% | 1012.8 hPa | 0.25 mm | 5.81 m/s, 65° | - | - |
| 1778045565 | 8.89° C | 85% | 1012.8 hPa | 0.25 mm | 5.36 m/s, 61° | - | - |
| 1778045505 | 8.89° C | 85% | 1012.8 hPa | 0.25 mm | 5.81 m/s, 67° | - | - |
| 1778045445 | 8.89° C | 85% | 1012.8 hPa | 0.25 mm | 5.81 m/s, 67° | - | - |
| 1778045385 | 8.89° C | 85% | 1012.8 hPa | 0.25 mm | 5.36 m/s, 62° | - | - |
| 1778045325 | 8.89° C | 85% | 1012.7 hPa | 0.25 mm | 6.26 m/s, 69° | - | - |
| 1778045265 | 8.89° C | 85% | 1012.7 hPa | 0.25 mm | 6.71 m/s, 63° | - | - |
| 1778045204 | 8.89° C | 85% | 1012.8 hPa | 0.25 mm | 5.81 m/s, 64° | - | - |
| 1778045144 | 8.89° C | 86% | 1012.7 hPa | 0.25 mm | 5.36 m/s, 65° | - | - |
| 1778045084 | 8.89° C | 85% | 1012.7 hPa | 0.25 mm | 5.36 m/s, 61° | - | - |
| 1778045024 | 8.89° C | 85% | 1012.7 hPa | 0.25 mm | 5.81 m/s, 63° | - | - |
| 1778044964 | 8.89° C | 85% | 1012.7 hPa | 0.25 mm | 5.36 m/s, 72° | - | - |
| 1778044904 | 8.89° C | 85% | 1012.7 hPa | 0.25 mm | 5.36 m/s, 70° | - | - |
| 1778044844 | 8.89° C | 85% | 1012.7 hPa | 0.25 mm | 5.81 m/s, 62° | - | - |
| 1778044784 | 8.89° C | 85% | 1012.8 hPa | 0.25 mm | 6.26 m/s, 67° | - | - |
| 1778044724 | 8.89° C | 85% | 1012.7 hPa | 0.25 mm | 6.71 m/s, 65° | - | - |
* Rain latest hour (hover to see other rain measurements)
** Current wind speed in m/s (hover to see current wind gust speed)